Location: Aulnoy
(48.8410°N, 3.0967°E)
Time: 07:15:07
(UTC+00:00)

CZ-4B R/B - Pass Details

Date: 09 February 2023
Orbit: 809 x 881 km, 99.0° (Epoch: 22 March)

Event Time Altitude Azimuth Distance (km) Brightness Sun altitude
Rises 18:08:54 0° 149° (SSE) 3,353 6.1 -12.1°
Reaches altitude 10° 18:11:15 10° 145° (SE) 2,434 5.3 -12.5°
Maximum altitude 18:16:31 57° 68° (ENE) 990 3.2 -13.3°
Drops below altitude 10° 18:21:55 10° 352° (N) 2,497 5.7 -14.2°
Sets 18:24:21 0° 348° (NNW) 3,448 6.5 -14.6°
